Regional Weather Roundup
Issued by NWS

Current Version | Previous Version | Text Only | Print | Product List | Glossary Off
Versions: 1 2 3 4 5 6 7 8 9 10 11 12 13 14 15 16 17 18 19 20 21 22 23 24 25 26 27 28 29 30 31 32 33 34 35 36 37 38 39 40 41 42 43 44 45 46 47 48 49 50

000
ASUS43 KLMK 232210
RWRKY
KENTUCKY REGIONAL WEATHER ROUNDUP
NATIONAL WEATHER SERVICE LOUISVILLE KY
600 PM EDT WED AUG 23 2017

NOTE "FAIR" INDICATES FEW OR NO CLOUDS BELOW 12,000 FEET
WITH NO SIGNIFICANT WEATHER AND/OR OBSTRUCTIONS TO VISIBILITY.

KYZ001>023-026-027-061>063-070>075-232300-
WESTERN AND SOUTH CENTRAL KENTUCKY

CITY           SKY/WX    TMP DP  RH WIND       PRES   REMARKS
PADUCAH        MOSUNNY   82  56  40 NE8       29.99F
HENDERSON      NOT AVBL
OWENSBORO      MOSUNNY   80  57  45 NW9       30.00F
HOPKINSVILLE   CLOUDY    78  57  47 N8        29.98F
BOWLING GREEN  MOSUNNY   81  59  47 VRB6      29.98S
GLASGOW        PTSUNNY   78  58  49 N7        29.98S
$$

KYZ024-025-028>034-038-045-046-053-232300-
NORTH CENTRAL KENTUCKY

CITY           SKY/WX    TMP DP  RH WIND       PRES   REMARKS
LOUISVILLE/SDF PTSUNNY   82  53  36 VRB5      29.97F
LOUISVILLE/LOU SUNNY     78  57  48 CALM      29.98F
FORT KNOX      SUNNY     79  54  41 NW8       29.98F
$$

KYZ035>037-039>044-047>052-055>060-089>105-232300-
NORTHEAST KENTUCKY

CITY           SKY/WX    TMP DP  RH WIND       PRES   REMARKS
LEXINGTON      MOSUNNY   78  53  41 N7        30.00F
COVINGTON      MOSUNNY   77  54  44 N9        29.99F
FRANKFORT      PTSUNNY   79  51  37 N7        29.98F
$$

KYZ054-064>069-076>088-106>120-232300-
SOUTHEAST KENTUCKY

CITY           SKY/WX    TMP DP  RH WIND       PRES   REMARKS
JACKSON        SUNNY     76  58  53 CALM      29.99S
LONDON         PTSUNNY   78  58  49 N8        29.98S
SOMERSET       SUNNY     77  54  44 N8        29.98F
MIDDLESBORO    PTSUNNY   80  63  57 N7        29.96S
MONTICELLO     PTCLDY    77  64  64 N16       29.99F
$$





USA.gov is the U.S. government's official web portal to all federal, state and local government web resources and services.